Regional Weather Roundup
Issued by NWS

Home | Current Version | Previous Version | Graphics & Text | Print | Product List | Glossary On
Versions: 1 2 3 4 5 6 7 8 9 10 11 12 13 14 15 16 17 18 19 20 21 22 23 24 25 26 27 28 29 30 31 32 33 34 35 36 37 38 39 40 41 42 43 44 45 46 47 48 49 50
000
ASUS43 KMPX 052201
RWRMN
WEATHER ROUNDUP FOR MINNESOTA
NATIONAL WEATHER SERVICE TWIN CITIES/CHANHASSEN MN
400 PM CST THU MAR 05 2015


NOTE: "FAIR" INDICATES FEW OR NO CLOUDS BELOW 12,000 FEET WITH NO
SIGNIFICANT WEATHER AND/OR OBSTRUCTIONS TO VISIBILITY. N/A MEANS
CURRENT SKY AND/OR WEATHER CONDITIONS ARE NOT AVAILABLE.

MNZ060>063-068>070-052300-
   Twin Cities Metro

CITY           SKY/WX    TMP DP  RH WIND       PRES   REMARKS
TWIN CITIES    SUNNY     15  -1  49 S7        30.43F WCI   5
ST PAUL        SUNNY     15  -2  46 SW8       30.45F WCI   4
CRYSTAL        SUNNY     14  -1  51 SW10      30.41F WCI   1
BLAINE         SUNNY     16   0  48 SW9G16    30.41F WCI   4
LAKEVILLE      SUNNY     12   0  57 W7        30.43S WCI   2
EDEN PRAIRIE   SUNNY     16   0  49 SW10      30.41F WCI   4
SOUTH ST PAUL  SUNNY     16  -1  47 SW8       30.43F WCI   5
LAKE ELMO      FAIR      16   0  48 SW12      30.43S WCI   3
$$
MNZ001>005-007-008-013>017-022>024-027-028-052300-
   Northwest Minnesota

CITY           SKY/WX    TMP DP  RH WIND       PRES   REMARKS
BEMIDJI        SUNNY     17  -3  41 S14G20    30.19F WCI   2
HALLOCK        SUNNY     21  12  68 S25       30.10F WCI   4
ROSEAU         SUNNY     18   7  62 S15       30.12F WCI   3
WARROAD        SUNNY     16   3  57 SW12G22   30.12F WCI   3
THIEF RVR FALL SUNNY     18   7  62 S22       30.15F WCI   0
CROOKSTON      SUNNY     23  10  58 SW26      30.19F WCI   6
FOSSTON        SUNNY     18   3  53 S22       30.19F WCI   0
DETROIT LAKES  SUNNY     18   1  49 S13G20    30.23F WCI   4
MOORHEAD       SUNNY     21   7  53 S17G25    30.23F WCI   7
PARK RAPIDS    SUNNY     15  -2  46 S14       30.23F WCI   0
MAHNOMEN       FAIR      17   4  56 S23       30.21F WCI  -1
$$
MNZ006-009>011-018-025>026-052300-
   North Central Minnesota

CITY           SKY/WX    TMP DP  RH WIND       PRES   REMARKS
BAUDETTE       SUNNY     17  -2  43 S13       30.12F WCI   4
FLAG ISLAND    SUNNY     14   0  52 S17       30.09F WCI  -3
INTL FALLS     SUNNY     16  -7  35 SW16      30.17F WCI   1
WASKISH        SUNNY     19  -2  38 S12G18    30.17F WCI   7
BIG FORK       SUNNY     16  -4  41 SW16      30.20F WCI   0
LONGVILLE      SUNNY     16  -6  38 S9        30.25F WCI   4
GRAND RAPIDS   SUNNY     14  -6  41 SW8G18    30.23F WCI   3
CRANE LAKE     SUNNY     16 -11  29 S9        30.21F WCI   4
ORR            SUNNY     16 -11  29 SW5G18    30.17F WCI   9
COOK           SUNNY     16  -8  35 SW10      30.20F WCI   3
WALKER         FAIR      14  -4  43 SW13G21   30.23F WCI   0
$$
MNZ012-019>021-037-052300-
   Northeast Minnesota

CITY           SKY/WX    TMP DP  RH WIND       PRES   REMARKS
DULUTH         SUNNY     14  -8  37 SW14      30.25F WCI  -1
ELY            SUNNY     12 -11  34 SW10G16   30.20F WCI  -1
HIBBING        SUNNY     15  -9  33 SW9       30.23F WCI   3
EVELETH        SUNNY     16  -6  38 SW12      30.23F WCI   3
DULUTH HARBOR  SUNNY     16  -6  38 SW18      30.33F WCI  -1
TWO HARBORS    SUNNY     19  -4  35 W13G18    30.25F WCI   7
SILVER BAY     SUNNY     18  -9  29 SW8       30.24F WCI   7
GRAND MARAIS     N/A     18  10  71 SW26      30.27F WCI  -1
G MARAIS ARPRT SUNNY     10   0  61 S12G18    30.16F WCI  -4
$$
MNZ029>031-032-039>041-046>048-054>057-064-052300-
   West Central Minnesota

CITY           SKY/WX    TMP DP  RH WIND       PRES   REMARKS
FERGUS FALLS   SUNNY     18   3  53 S17       30.30F WCI   2
WHEATON        SUNNY     18   7  62 S12       30.30S WCI   5
MORRIS         SUNNY     19   5  53 S15       30.28F WCI   5
ALEXANDRIA     SUNNY     14   1  56 S14       30.28F WCI  -1
ELBOW LAKE     FAIR      16   6  66 S17       30.28F WCI   0
WADENA         SUNNY     14  -2  48 S10       30.26F WCI   1
GLENWOOD       SUNNY     18   1  49 S13       30.30F WCI   4
APPLETON       SUNNY     23   5  46 S13       30.31F WCI  11
BENSON         SUNNY     21   3  45 SW12      30.31F WCI   9
ORTONVILLE     SUNNY     21   7  53 S13G18    30.29F WCI   9
MADISON        SUNNY     21  10  63 S15       30.31F WCI   8
WILLMAR        FAIR      19   3  49 S7        30.34F WCI  10
$$
MNZ033>034-036-042>043-049>051-058-059-052300-
   Central Minnesota

CITY           SKY/WX    TMP DP  RH WIND       PRES   REMARKS
ST CLOUD       SUNNY     13   1  59 S12       30.37F WCI  -1
SAUK CENTRE    FAIR      16   4  59 S13       30.31F WCI   2
PAYNESVILLE    SUNNY     14   2  59 SE12G17   30.34F WCI   0
AITKIN         SUNNY     16  -8  35 SW13G18   30.29F WCI   2
PINE RIVER     SUNNY     14  -2  48 SW12      30.30S WCI   0
BRAINERD       SUNNY     12  -5  46 S17       30.31F WCI  -5
STAPLES        SUNNY     12  -4  48 S12       30.29F WCI  -2
LONG PRAIRIE   FAIR      14   3  62 S14       30.31F WCI  -1
LITTLE FALLS   SUNNY     14   0  52 S10       30.34F WCI   1
LITCHFIELD     SUNNY     16   3  57 S5        30.37F WCI   9
BUFFALO        SUNNY     13   1  57 S9        30.41F WCI   1
MAPLE LAKE     SUNNY     15   3  59 S6        30.39F WCI   6
$$
MNZ037-044-045-052-053-052300-
   East Central Minnesota

CITY           SKY/WX    TMP DP  RH WIND       PRES   REMARKS
PRINCETON      SUNNY     14   0  52 SW8       30.37F WCI   3
MORA           SUNNY     14  -2  48 SW8G17    30.38F WCI   3
CAMBRIDGE      SUNNY     14   0  52 SW9       30.38F WCI   2
RUSH CITY      SUNNY     13  -4  47 S12       30.39F WCI  -1
MOOSE LAKE     SUNNY     16  -4  41 S9        30.30F WCI   4
HINCKLEY       FAIR      14  -2  48 SW13      30.36F WCI   0
CLOQUET        SUNNY     14  -9  34 SW14      30.27F WCI  -1
MCGREGOR       SUNNY     12  -2  52 SW12      30.31S WCI  -2
$$
MNZ071>073-080-081-089-090-097-098-052300-
   Southwest Minnesota

CITY           SKY/WX    TMP DP  RH WIND       PRES   REMARKS
MONTEVIDEO     SUNNY     25   7  46 SW9G17    30.33F WCI  15
GRANITE FALLS  SUNNY     22   7  51 S13       30.35F WCI  10
CANBY          SUNNY     22   8  55 S12       30.31F WCI  11
MARSHALL       SUNNY     19   5  53 S14       30.34F WCI   6
REDWOOD FALLS  SUNNY     19   2  47 S14       30.36F WCI   6
OLIVIA         SUNNY     19   5  53 S10G16    30.35F WCI   8
PIPESTONE      SUNNY     21   9  58 SW13      30.28F WCI   9
WINDOM         SUNNY     21   5  49 S10       30.34F WCI  10
WORTHINGTON    SUNNY     21   7  53 S12       30.34F WCI   9
JACKSON        SUNNY     21   5  49 S10       30.36F WCI  10
TRACY          SUNNY     21   7  54 S12       30.33F WCI  10
SLAYTON        SUNNY     21   4  47 SW15      30.31F WCI   8
$$
MNZ065>067-074>077-082>085-091>093-052300-
   South Central Minnesota

CITY           SKY/WX    TMP DP  RH WIND       PRES   REMARKS
MANKATO        SUNNY     16   1  53 SW9       30.41F WCI   4
NEW ULM        SUNNY     18   3  53 S9        30.39F WCI   6
ST JAMES       SUNNY     19   7  58 S9        30.40F WCI   9
FAIRMONT       SUNNY     19   3  49 SW10      30.38F WCI   8
GLENCOE        SUNNY     18   6  60 S9        30.39F WCI   6
FARIBAULT      SUNNY     16   3  57 SW8       30.43S WCI   5
OWATONNA       SUNNY     14   1  57 SW8       30.42S WCI   3
WASECA         SUNNY     18   5  57 S10       30.43F WCI   6
ALBERT LEA     SUNNY     14   3  62 SW8       30.41F WCI   3
$$
MNZ078>079-086>088-094>096-052300-
   Southeast Minnesota

CITY           SKY/WX    TMP DP  RH WIND       PRES   REMARKS
ROCHESTER      SUNNY      9  -1  64 SW10      30.43S WCI  -5
RED WING       SUNNY     14  -4  44 W7        30.45S WCI   4
STANTON        SUNNY     15   1  53 SW8       30.43S WCI   4
DODGE CENTER   SUNNY     10   1  67 SW9       30.41F WCI  -2
WINONA         SUNNY     14   0  52 SW7       30.49F WCI   4
AUSTIN         SUNNY     10   0  61 SW9       30.43F WCI  -2
PRESTON        SUNNY      8  -1  66 W9        30.44F WCI  -6
$$
ABBREVIATIONS USED IN REMARKS
   TC - TEMPERATURES IN CELSIUS
  WCI - WIND CHILL INDEX
   HX - HEAT INDEX
  VSB - VISIBILITY
$$


USA.gov is the U.S. government's official web portal to all federal, state and local government web resources and services.